Location: Novokuznetsk
(53.7500°N, 87.1000°E)
Time: 02:15:27
(UTC+06:00)

ISS - Pass Details

Date: 16 July 2018
Orbit: 402 x 408 km, 51.6° (Epoch: 20 July)

Event Time Altitude Azimuth Distance (km) Brightness Sun altitude
Exits shadow 00:21:24 30° 150° (SSE) 767 -2.9 -14.8°
Drops below altitude 10° 00:24:10 10° 93° (E) 1,471 -1.0 -14.8°
Sets 00:26:24 0° 82° (E) 2,335 0.2 -14.8°
